[[{"header":{"parameterUnit":"m.s-1","parameterCategory":1,"la1":30.2991,"la2":30.254,"lo1":-89.0895,"lo2":-89.0444,"dy":0.0017,"dx":0.0017,"nx":28,"ny":28,"refTime":"2024-04-04T03:00:00:Z","depth":0,"parameterNumber":2,"parameterNumberName":"U-component_of_WINDS"},"data":[0,0,0,0,0,0,0,0,0,0,0,0,0,0,0,0,0,0,0,0,0,0,0,0,0,0,0,0,0,0,0,0,0,0,0,0,0,0,0,0,0,0,0,0,0,0,0,0,0,0,0,0,0,0,0,0,0,0,5.3749,5.3751,0,5.392,5.3922,5.3924,5.3894,5.3891,5.3888,5.3885,5.4061,5.4068,5.4075,0,0,0,0,0,0,0,0,0,0,0,0,0,5.34,5.3406,5.3749,5.3751,5.3753,5.3919,5.3922,5.3924,5.3895,5.3891,5.3887,5.3884,5.4058,5.4067,5.4076,0,0,0,0,0,0,0,0,0,0,0,0,0,5.3559,5.3408,5.3749,5.3759,5.3761,5.3919,5.3922,5.3925,5.3895,5.3891,5.3886,5.3882,5.4055,5.4066,5.4077,5.4236,0,0,5.4111,5.4116,0,0,0,0,0,0,0,0,5.355,5.3572,5.3755,5.3758,5.3761,5.3881,5.3863,5.4029,5.3897,5.3845,5.3885,5.388,5.4005,5.402,5.4061,5.4244,5.4251,5.4112,5.4119,5.4124,5.4127,0,0,0,0,0,0,0,5.3539,5.3564,5.3816,5.3758,5.3762,5.3755,5.3773,5.3894,5.3948,5.3849,5.3847,5.3868,5.4005,5.4051,5.4065,5.4254,5.4112,5.4122,5.4129,5.4133,5.4578,5.4583,0,0,0,0,0,0,5.3525,5.3555,5.3811,5.3822,5.3642,5.3765,5.3785,5.3847,5.3946,5.3957,5.3871,5.3866,5.4034,5.4052,5.4071,5.4265,5.4124,5.4134,5.4141,5.4573,5.4579,5.4585,0,0,0,0,0,0,5.3517,5.3548,5.3804,5.3688,5.372,5.3776,5.3846,5.3853,5.3898,5.3963,5.3973,5.3908,5.4031,5.4056,5.4196,5.4271,5.4139,5.4149,5.4567,5.4575,5.4582,5.4653,0,0,0,0,0,0,5.3507,5.3545,5.3605,5.369,5.3727,5.3925,5.3851,5.3859,5.3917,5.3912,5.4,5.401,5.4029,5.4179,5.4207,5.4284,5.4158,5.456,5.457,5.4579,5.4644,5.4662,5.4677,0,0,0,0,0,5.3495,5.3618,5.3609,5.364,5.3803,5.3929,5.3951,5.397,5.3924,5.3985,5.4027,5.4007,5.4258,5.4194,5.4225,5.4306,5.4556,5.4568,5.4579,5.4637,5.4658,5.4677,0,0,0,0,0,0,5.3541,5.3629,5.362,5.3774,5.3844,5.3924,5.4002,5.3992,5.4078,5.4069,5.409,5.411,5.4252,5.4293,5.422,5.4466,5.4401,5.4419,5.4434,5.4455,5.4472,5.4459,5.4167,0,0,0,0,0,5.3569,5.3664,5.3736,5.3865,5.3901,5.3946,5.4002,5.4011,5.4085,5.4115,5.4167,5.424,5.4335,5.4397,5.4489,5.465,5.467,5.4722,5.4738,5.4751,5.4767,5.4857,5.4882,5.4622,5.4622,5.4622,0,0,5.3628,5.3688,5.3746,5.3876,5.3932,5.4031,5.3971,5.4077,5.4151,5.4131,5.4266,5.4308,5.4391,5.4543,5.4612,5.4581,5.4843,5.4766,5.4776,5.4785,5.4872,5.4896,5.4918,5.463,5.4629,5.4628,0,0,5.3786,5.384,5.3954,5.4012,5.4098,5.4127,5.4155,5.4237,5.4264,5.44,5.4388,5.4476,5.4639,5.47,5.4752,5.4935,5.4921,5.4964,5.5051,5.5139,5.516,5.5178,5.5244,5.5268,5.498,5.498,5.498,0,5.3848,5.3996,5.4014,5.4123,5.4181,5.4168,5.4285,5.434,5.4451,5.4492,5.4455,5.4662,5.4717,5.4883,5.4928,5.4971,5.5004,5.4954,5.5155,5.5174,5.5191,5.5255,5.528,5.4985,5.4984,5.4984,5.4983,0,5.4069,5.4172,5.4254,5.4362,5.443,5.4542,5.4579,5.4645,5.4649,5.4682,5.4823,5.4889,5.4994,5.5034,5.5039,5.5203,5.5181,5.515,5.5084,5.522,5.528,5.5305,5.4992,5.499,5.4988,5.4987,0,0,5.4259,5.4378,5.4408,5.4458,5.4552,5.4632,5.4745,5.4848,5.4905,5.4983,5.5078,5.5218,5.5191,5.525,5.5262,5.5339,5.5482,5.5299,5.5301,5.5331,5.5668,5.5691,5.5719,5.5473,5.5478,5.5482,5.5661,0,5.4426,5.4624,5.4646,5.4823,5.4919,5.4909,5.5007,5.5077,5.5112,5.5199,5.5238,5.5337,5.5293,5.5329,5.5404,5.5448,5.555,5.5436,5.5563,5.5567,5.5543,5.575,5.5775,5.5941,5.5685,5.5689,5.5692,0,5.4648,5.4732,5.4919,5.5003,5.5044,5.5132,5.5229,5.5312,5.5392,5.5412,5.5479,5.5481,5.5599,5.5529,5.5692,5.5614,5.5667,5.5697,5.5704,5.5717,5.5638,5.5769,5.5994,5.602,5.5729,5.5726,5.5724,0,5.4769,5.493,5.5063,5.5106,5.5206,5.5268,5.5313,5.5388,5.5449,5.5535,5.5575,5.5673,5.5727,5.5803,5.5832,5.5779,5.5994,5.5927,5.6015,5.6015,5.6061,5.6057,5.6298,5.6095,5.6094,5.6094,5.6093,0,5.4954,5.5069,5.5119,5.5201,5.533,5.5354,5.5482,5.5524,5.5591,5.5682,5.5679,5.5764,5.5798,5.5889,5.5913,5.6045,5.6069,5.6089,5.6094,5.609,5.6087,5.6125,5.6114,5.6101,5.6099,5.6098,5.6097,0,5.511,5.5149,5.5293,5.5377,5.5401,5.5493,5.5564,5.5644,5.5679,5.5794,5.5822,5.5877,5.5984,5.6021,5.6151,5.6167,5.6321,5.6316,5.6294,5.6295,5.6382,5.6374,5.6656,5.6695,5.6465,5.6467,5.6469,0,5.5226,5.5315,5.5408,5.5469,5.5516,5.5613,5.5676,5.5704,5.577,5.5869,5.5937,5.6044,5.613,5.6303,5.6355,5.6455,5.6452,5.6544,5.6467,5.6461,5.6455,5.6449,5.6459,5.6559,5.6561,5.6563,5.6564,0,5.5428,5.5443,5.5533,5.5632,5.5707,5.5786,5.5862,5.5912,5.5952,5.6026,5.6136,5.6204,5.6337,5.6444,5.6547,5.6593,5.6587,5.6589,5.6615,5.6611,5.6595,5.6606,5.6334,5.6582,5.658,5.6579,5.6578,5.6577,5.5568,5.5647,5.5726,5.5827,5.5888,5.596,5.6039,5.6084,5.6177,5.6287,5.6299,5.6418,5.6497,5.6634,5.6686,5.678,5.6754,5.6792,5.6801,5.681,5.6817,5.658,5.6799,5.6798,5.6798,5.6798,5.6797,0,5.577,5.5821,5.5914,5.6021,5.6102,5.6089,5.6173,5.6241,5.6346,5.642,5.6506,5.6634,5.6738,5.6798,5.6902,5.6966,5.6966,5.6993,5.6989,5.7,5.6834,5.6801,5.6992,5.6992,5.6992,5.6991,5.6991,5.6991,5.5885,5.6018,5.6043,5.6207,5.6256,5.6373,5.6423,5.6489,5.6549,5.6691,5.6778,5.6816,5.6886,5.6996,5.7091,5.7106,5.7145,5.7175,5.7188,5.7031,5.7011,5.6992,5.6962,5.7183,5.7183,5.7346,5.7348,5.7349]},{"header":{"parameterUnit":"m.s-1","parameterCategory":1,"la1":30.2991,"la2":30.254,"lo1":-89.0895,"lo2":-89.0444,"dy":0.0017,"dx":0.0017,"nx":28,"ny":28,"refTime":"2024-04-04T03:00:00:Z","depth":0,"parameterNumber":3,"parameterNumberName":"V-component_of_WINDS"},"data":[0,0,0,0,0,0,0,0,0,0,0,0,0,0,0,0,0,0,0,0,0,0,0,0,0,0,0,0,0,0,0,0,0,0,0,0,0,0,0,0,0,0,0,0,0,0,0,0,0,0,0,0,0,0,0,0,0,0,-1.3548,-1.3548,0,-1.3573,-1.3573,-1.3574,-1.3614,-1.3615,-1.3616,-1.3617,-1.3641,-1.3641,-1.3641,0,0,0,0,0,0,0,0,0,0,0,0,0,-1.3532,-1.3532,-1.3548,-1.3548,-1.3548,-1.3573,-1.3573,-1.3574,-1.3614,-1.3615,-1.3616,-1.3617,-1.3641,-1.3641,-1.3641,0,0,0,0,0,0,0,0,0,0,0,0,0,-1.3546,-1.3532,-1.3547,-1.3571,-1.3574,-1.3573,-1.3573,-1.3574,-1.3614,-1.3615,-1.3616,-1.3617,-1.3641,-1.3641,-1.3641,-1.3618,0,0,-1.3641,-1.3641,0,0,0,0,0,0,0,0,-1.3545,-1.3547,-1.3568,-1.357,-1.3572,-1.3592,-1.3577,-1.3589,-1.3614,-1.3599,-1.3617,-1.3618,-1.3624,-1.3625,-1.3627,-1.3619,-1.362,-1.3641,-1.3641,-1.3641,-1.3641,0,0,0,0,0,0,0,-1.3544,-1.3546,-1.3558,-1.3568,-1.3571,-1.358,-1.3584,-1.3579,-1.3604,-1.36,-1.3603,-1.3606,-1.3625,-1.3627,-1.3628,-1.3621,-1.3641,-1.3641,-1.364,-1.364,-1.3594,-1.3593,0,0,0,0,0,0,-1.354,-1.3545,-1.3557,-1.3558,-1.3561,-1.358,-1.3583,-1.3584,-1.3605,-1.3609,-1.3605,-1.3608,-1.3627,-1.3628,-1.3629,-1.3603,-1.3641,-1.364,-1.364,-1.3595,-1.3594,-1.3593,0,0,0,0,0,0,-1.354,-1.3541,-1.3556,-1.3552,-1.3555,-1.3579,-1.358,-1.3584,-1.3587,-1.3608,-1.3613,-1.3602,-1.3628,-1.3629,-1.362,-1.3604,-1.364,-1.364,-1.3597,-1.3595,-1.3593,-1.3551,0,0,0,0,0,0,-1.3539,-1.354,-1.3532,-1.3552,-1.3555,-1.3547,-1.3579,-1.3584,-1.3587,-1.359,-1.3607,-1.3611,-1.3629,-1.362,-1.362,-1.3605,-1.364,-1.3598,-1.3596,-1.3594,-1.3554,-1.3548,-1.3543,0,0,0,0,0,-1.3538,-1.3519,-1.3532,-1.3533,-1.3546,-1.3546,-1.3548,-1.3569,-1.3585,-1.3577,-1.3591,-1.361,-1.3606,-1.3619,-1.3619,-1.3604,-1.3599,-1.3597,-1.3594,-1.3556,-1.3549,-1.3543,0,0,0,0,0,0,-1.3496,-1.3522,-1.3536,-1.3523,-1.3532,-1.3553,-1.3543,-1.3561,-1.3565,-1.3568,-1.3594,-1.3598,-1.3585,-1.3594,-1.3607,-1.3582,-1.3606,-1.3603,-1.3577,-1.357,-1.3565,-1.3562,-1.364,0,0,0,0,0,-1.3485,-1.3484,-1.3507,-1.3493,-1.3497,-1.3519,-1.352,-1.3536,-1.3546,-1.355,-1.3563,-1.3571,-1.3572,-1.3572,-1.3574,-1.3556,-1.3559,-1.3545,-1.3539,-1.3535,-1.3532,-1.3522,-1.3515,-1.3584,-1.3584,-1.3584,0,0,-1.3463,-1.3477,-1.3474,-1.3485,-1.3493,-1.3491,-1.3522,-1.3518,-1.3516,-1.3549,-1.3541,-1.3551,-1.3563,-1.3549,-1.3543,-1.3555,-1.3514,-1.3531,-1.3528,-1.3527,-1.3518,-1.3512,-1.3506,-1.3582,-1.3582,-1.3583,0,0,-1.342,-1.3431,-1.342,-1.3429,-1.3442,-1.3457,-1.3455,-1.3473,-1.3481,-1.3474,-1.3498,-1.3496,-1.3497,-1.3504,-1.3507,-1.3468,-1.3485,-1.3468,-1.3438,-1.3428,-1.3423,-1.3418,-1.3402,-1.3397,-1.3465,-1.3465,-1.3464,0,-1.339,-1.3388,-1.3412,-1.3407,-1.341,-1.3441,-1.3429,-1.3436,-1.3449,-1.345,-1.3464,-1.3466,-1.3476,-1.3463,-1.3453,-1.3456,-1.3453,-1.3465,-1.3422,-1.3417,-1.3413,-1.3398,-1.3393,-1.3462,-1.3462,-1.3463,-1.3463,0,-1.335,-1.3348,-1.3337,-1.3349,-1.3352,-1.3343,-1.3366,-1.3365,-1.3381,-1.3394,-1.3386,-1.3399,-1.3404,-1.3403,-1.3418,-1.3392,-1.3399,-1.3417,-1.3441,-1.3404,-1.339,-1.3385,-1.3459,-1.346,-1.346,-1.3461,0,0,-1.328,-1.3307,-1.3302,-1.3308,-1.3325,-1.3323,-1.3316,-1.3321,-1.3319,-1.3328,-1.3321,-1.3322,-1.3338,-1.3342,-1.3358,-1.335,-1.3316,-1.3369,-1.3369,-1.3357,-1.3287,-1.3272,-1.3265,-1.3329,-1.3328,-1.3327,-1.3286,0,-1.324,-1.3229,-1.3251,-1.3235,-1.3233,-1.3262,-1.3256,-1.3265,-1.3277,-1.3277,-1.3291,-1.329,-1.3313,-1.3315,-1.3308,-1.3321,-1.3302,-1.3325,-1.3322,-1.3321,-1.3316,-1.3259,-1.3243,-1.3204,-1.3281,-1.328,-1.3279,0,-1.3192,-1.3197,-1.3181,-1.3199,-1.3198,-1.3192,-1.3198,-1.3198,-1.3209,-1.3219,-1.3223,-1.3243,-1.3236,-1.326,-1.3251,-1.3266,-1.3266,-1.3272,-1.3271,-1.3271,-1.3297,-1.3255,-1.3192,-1.3185,-1.3272,-1.3272,-1.3273,0,-1.3141,-1.3145,-1.3135,-1.3139,-1.316,-1.3155,-1.3163,-1.3175,-1.3177,-1.3182,-1.3183,-1.3188,-1.319,-1.3192,-1.3212,-1.3228,-1.32,-1.3226,-1.3206,-1.3206,-1.3198,-1.3198,-1.3132,-1.32,-1.32,-1.32,-1.3201,0,-1.3093,-1.3081,-1.3113,-1.3106,-1.3094,-1.312,-1.3106,-1.3118,-1.3128,-1.3124,-1.315,-1.3146,-1.3173,-1.3171,-1.3187,-1.3176,-1.3177,-1.3184,-1.3187,-1.318,-1.3179,-1.318,-1.3182,-1.3199,-1.3199,-1.32,-1.32,0,-1.3033,-1.3054,-1.3045,-1.3066,-1.3071,-1.3061,-1.3078,-1.3073,-1.3087,-1.3082,-1.3082,-1.3104,-1.3104,-1.3124,-1.3127,-1.3138,-1.3119,-1.3129,-1.3116,-1.3118,-1.3097,-1.3098,-1.3028,-1.3019,-1.3094,-1.3094,-1.3093,0,-1.3,-1.2992,-1.3012,-1.3011,-1.3019,-1.3017,-1.3019,-1.3044,-1.3045,-1.3056,-1.3049,-1.3051,-1.3054,-1.3051,-1.3067,-1.307,-1.3079,-1.3054,-1.3079,-1.3072,-1.3077,-1.3076,-1.3075,-1.3048,-1.3047,-1.3046,-1.3046,0,-1.2939,-1.295,-1.2952,-1.2957,-1.2959,-1.2964,-1.2971,-1.2969,-1.2996,-1.2995,-1.2995,-1.2997,-1.3001,-1.3002,-1.3007,-1.3015,-1.3034,-1.3038,-1.3033,-1.3025,-1.3017,-1.302,-1.31,-1.3039,-1.304,-1.304,-1.3041,-1.3041,-1.2892,-1.2885,-1.2898,-1.2899,-1.2907,-1.2913,-1.2909,-1.2923,-1.2923,-1.2928,-1.2943,-1.294,-1.2951,-1.2961,-1.2967,-1.2965,-1.2977,-1.297,-1.2968,-1.2966,-1.2961,-1.3019,-1.2966,-1.2966,-1.2966,-1.2966,-1.2967,0,-1.2831,-1.2841,-1.2841,-1.285,-1.2851,-1.287,-1.2879,-1.2878,-1.2875,-1.2884,-1.2886,-1.2885,-1.2886,-1.2903,-1.2905,-1.29,-1.2909,-1.29,-1.29,-1.2901,-1.2951,-1.2954,-1.2893,-1.2893,-1.2893,-1.2893,-1.2893,-1.2893,-1.2799,-1.2789,-1.2801,-1.2796,-1.2806,-1.2803,-1.2806,-1.2811,-1.2819,-1.2817,-1.2818,-1.2829,-1.284,-1.2844,-1.2846,-1.285,-1.2849,-1.2837,-1.2844,-1.289,-1.2898,-1.2904,-1.2907,-1.2837,-1.2837,-1.2794,-1.2794,-1.2794]}]]